Time,TemperatureF,DewpointF,PressureIn,WindDirection,WindDirectionDegrees,WindSpeedMPH,WindSpeedGustMPH,Humidity,HourlyPrecipIn,Conditions,Clouds,dailyrainin,SoftwareType,DateUTC
2013-01-08 00:22:00,27.0,18.0,29.97,South,169,5.0,13.0,68,0.00,,,0.00,,2013-01-08 07:22:00,
2013-01-08 00:32:00,28.0,18.0,29.97,SSE,148,5.0,15.0,66,0.00,,,0.00,,2013-01-08 07:32:00,
2013-01-08 00:42:00,28.0,18.0,29.97,SSE,148,5.0,15.0,66,0.00,,,0.00,,2013-01-08 07:42:00,
2013-01-08 00:52:00,29.0,19.0,29.96,SE,143,3.0,13.0,65,0.00,,,0.00,,2013-01-08 07:52:00,
2013-01-08 01:01:00,28.0,18.0,29.97,SE,141,5.0,11.0,67,0.00,,,0.00,,2013-01-08 08:01:00,
2013-01-08 01:11:00,28.0,18.0,29.97,SE,141,5.0,11.0,67,0.00,,,0.00,,2013-01-08 08:11:00,
2013-01-08 01:22:00,27.0,18.0,29.97,SE,139,6.0,13.0,67,0.00,,,0.00,,2013-01-08 08:22:00,
2013-01-08 01:32:00,27.0,18.0,29.97,SE,139,4.0,8.0,68,0.00,,,0.00,,2013-01-08 08:32:00,
2013-01-08 01:42:00,27.0,18.0,29.97,SE,139,4.0,8.0,68,0.00,,,0.00,,2013-01-08 08:42:00,
2013-01-08 01:52:00,27.0,18.0,29.97,SE,139,2.0,8.0,68,0.00,,,0.00,,2013-01-08 08:52:00,
2013-01-08 02:02:00,27.0,18.0,29.98,SSE,153,8.0,13.0,67,0.00,,,0.00,,2013-01-08 09:02:00,
2013-01-08 02:11:00,27.0,18.0,29.98,SSE,153,8.0,13.0,67,0.00,,,0.00,,2013-01-08 09:11:00,
2013-01-08 02:22:00,28.0,18.0,29.98,SSE,154,5.0,14.0,66,0.00,,,0.00,,2013-01-08 09:22:00,
2013-01-08 02:32:00,28.0,18.0,29.98,SE,142,6.0,14.0,65,0.00,,,0.00,,2013-01-08 09:32:00,
2013-01-08 02:42:00,28.0,18.0,29.98,SE,142,6.0,14.0,65,0.00,,,0.00,,2013-01-08 09:42:00,
2013-01-08 02:52:00,28.0,17.0,29.98,SSE,153,7.0,13.0,64,0.00,,,0.00,,2013-01-08 09:52:00,
2013-01-08 03:02:00,27.0,17.0,30.00,SE,134,6.0,18.0,65,0.00,,,0.00,,2013-01-08 10:02:00,
2013-01-08 03:12:00,27.0,17.0,30.00,SE,134,6.0,18.0,65,0.00,,,0.00,,2013-01-08 10:12:00,
2013-01-08 03:22:00,27.0,18.0,30.01,ESE,121,6.0,16.0,67,0.00,,,0.00,,2013-01-08 10:22:00,
2013-01-08 03:32:00,28.0,18.0,30.00,ESE,113,5.0,14.0,66,0.00,,,0.00,,2013-01-08 10:32:00,
2013-01-08 03:42:00,28.0,18.0,30.00,ESE,113,5.0,14.0,66,0.00,,,0.00,,2013-01-08 10:42:00,
2013-01-08 03:52:00,28.0,18.0,30.00,ESE,115,4.0,12.0,67,0.00,,,0.00,,2013-01-08 10:52:00,
2013-01-08 04:02:00,28.0,18.0,29.99,ESE,116,0.0,10.0,67,0.00,,,0.00,,2013-01-08 11:02:00,
2013-01-08 04:11:00,28.0,18.0,29.99,ESE,116,0.0,10.0,67,0.00,,,0.00,,2013-01-08 11:11:00,
2013-01-08 04:22:00,28.0,18.0,29.99,ESE,121,2.0,10.0,67,0.00,,,0.00,,2013-01-08 11:22:00,
2013-01-08 04:32:00,28.0,18.0,30.00,ESE,118,3.0,11.0,67,0.00,,,0.00,,2013-01-08 11:32:00,
2013-01-08 04:42:00,28.0,18.0,30.00,ESE,118,3.0,11.0,67,0.00,,,0.00,,2013-01-08 11:42:00,
2013-01-08 04:53:00,27.0,18.0,30.01,ESE,118,0.0,4.0,69,0.00,,,0.00,,2013-01-08 11:53:00,
2013-01-08 05:02:00,26.0,18.0,30.01,ESE,118,0.0,3.0,71,0.00,,,0.00,,2013-01-08 12:02:00,
2013-01-08 05:12:00,26.0,18.0,30.01,ESE,118,0.0,3.0,71,0.00,,,0.00,,2013-01-08 12:12:00,
2013-01-08 05:22:00,26.0,18.0,30.01,ESE,118,0.0,2.0,72,0.00,,,0.00,,2013-01-08 12:22:00,
2013-01-08 05:32:00,25.0,18.0,30.01,ESE,118,0.0,2.0,73,0.00,,,0.00,,2013-01-08 12:32:00,
2013-01-08 05:42:00,25.0,18.0,30.01,ESE,118,0.0,2.0,73,0.00,,,0.00,,2013-01-08 12:42:00,
2013-01-08 05:53:00,25.0,18.0,30.01,ESE,118,0.0,2.0,74,0.00,,,0.00,,2013-01-08 12:53:00,
2013-01-08 06:02:00,24.0,17.0,30.00,ESE,118,0.0,3.0,75,0.00,,,0.00,,2013-01-08 13:02:00,
2013-01-08 06:12:00,24.0,17.0,30.00,ESE,118,0.0,3.0,75,0.00,,,0.00,,2013-01-08 13:12:00,
2013-01-08 06:22:00,24.0,18.0,30.01,ESE,118,1.0,3.0,76,0.00,,,0.00,,2013-01-08 13:22:00,
2013-01-08 06:32:00,24.0,17.0,30.01,ESE,118,0.0,4.0,74,0.00,,,0.00,,2013-01-08 13:32:00,
2013-01-08 06:42:00,24.0,17.0,30.01,ESE,118,0.0,4.0,74,0.00,,,0.00,,2013-01-08 13:42:00,
2013-01-08 06:53:00,24.0,17.0,30.01,ESE,118,0.0,4.0,74,0.00,,,0.00,,2013-01-08 13:53:00,
2013-01-08 07:02:00,24.0,18.0,30.01,ESE,118,0.0,5.0,77,0.00,,,0.00,,2013-01-08 14:02:00,
2013-01-08 07:12:00,24.0,18.0,30.01,ESE,118,0.0,5.0,77,0.00,,,0.00,,2013-01-08 14:12:00,
2013-01-08 07:22:00,23.0,17.0,30.02,ESE,118,0.0,3.0,77,0.00,,,0.00,,2013-01-08 14:22:00,
2013-01-08 07:32:00,23.0,17.0,30.02,ESE,118,0.0,2.0,77,0.00,,,0.00,,2013-01-08 14:32:00,
2013-01-08 07:42:00,23.0,17.0,30.02,ESE,118,0.0,2.0,77,0.00,,,0.00,,2013-01-08 14:42:00,
2013-01-08 07:53:00,22.0,16.0,30.03,ESE,118,0.0,4.0,79,0.00,,,0.00,,2013-01-08 14:53:00,
2013-01-08 08:02:00,24.0,17.0,30.03,ESE,118,0.0,5.0,75,0.00,,,0.00,,2013-01-08 15:02:00,
2013-01-08 08:12:00,24.0,17.0,30.03,ESE,118,0.0,5.0,75,0.00,,,0.00,,2013-01-08 15:12:00,
2013-01-08 08:22:00,24.0,17.0,30.03,ESE,118,0.0,2.0,73,0.00,,,0.00,,2013-01-08 15:22:00,
2013-01-08 08:32:00,22.0,15.0,30.05,ESE,118,0.0,5.0,73,0.00,,,0.00,,2013-01-08 15:32:00,
2013-01-08 08:42:00,22.0,15.0,30.05,ESE,118,0.0,5.0,73,0.00,,,0.00,,2013-01-08 15:42:00,
2013-01-08 08:53:00,21.0,15.0,30.05,ESE,118,2.0,5.0,77,0.00,,,0.00,,2013-01-08 15:53:00,
2013-01-08 09:02:00,20.0,15.0,30.06,ESE,118,1.0,8.0,81,0.00,,,0.00,,2013-01-08 16:02:00,
2013-01-08 09:12:00,20.0,15.0,30.06,ESE,118,1.0,8.0,81,0.00,,,0.00,,2013-01-08 16:12:00,
2013-01-08 09:22:00,20.0,15.0,30.06,ESE,118,0.0,8.0,79,0.00,,,0.00,,2013-01-08 16:22:00,
2013-01-08 09:32:00,21.0,16.0,30.07,ESE,118,0.0,3.0,79,0.00,,,0.00,,2013-01-08 16:32:00,
2013-01-08 09:42:00,21.0,16.0,30.07,ESE,118,0.0,3.0,79,0.00,,,0.00,,2013-01-08 16:42:00,
2013-01-08 09:52:00,22.0,16.0,30.07,ESE,118,1.0,4.0,77,0.00,,,0.00,,2013-01-08 16:52:00,
2013-01-08 10:02:00,23.0,17.0,30.08,ESE,118,0.0,4.0,78,0.00,,,0.00,,2013-01-08 17:02:00,
2013-01-08 10:12:00,23.0,17.0,30.08,ESE,118,0.0,4.0,78,0.00,,,0.00,,2013-01-08 17:12:00,
2013-01-08 10:22:00,25.0,18.0,30.08,ESE,118,0.0,1.0,73,0.00,,,0.00,,2013-01-08 17:22:00,
2013-01-08 10:33:00,27.0,18.0,30.08,ESE,118,0.0,1.0,68,0.00,,,0.00,,2013-01-08 17:33:00,
2013-01-08 10:42:00,27.0,18.0,30.08,ESE,118,0.0,1.0,68,0.00,,,0.00,,2013-01-08 17:42:00,
2013-01-08 10:53:00,29.0,18.0,30.09,ESE,118,3.0,4.0,64,0.00,,,0.00,,2013-01-08 17:53:00,
2013-01-08 11:03:00,30.0,20.0,30.08,ESE,118,0.0,3.0,65,0.00,,,0.00,,2013-01-08 18:03:00,
2013-01-08 11:12:00,30.0,20.0,30.08,ESE,118,0.0,3.0,65,0.00,,,0.00,,2013-01-08 18:12:00,
2013-01-08 11:22:00,31.0,20.0,30.08,ESE,118,0.0,2.0,64,0.00,,,0.00,,2013-01-08 18:22:00,
2013-01-08 11:32:00,32.0,20.0,30.08,ESE,118,2.0,5.0,61,0.00,,,0.00,,2013-01-08 18:32:00,
2013-01-08 11:43:00,32.0,20.0,30.08,ESE,118,2.0,5.0,61,0.00,,,0.00,,2013-01-08 18:43:00,
2013-01-08 11:53:00,34.0,21.0,30.08,ESE,118,0.0,4.0,58,0.00,,,0.00,,2013-01-08 18:53:00,
2013-01-08 12:02:00,36.0,21.0,30.08,ESE,118,0.0,1.0,54,0.00,,,0.00,,2013-01-08 19:02:00,
2013-01-08 12:11:00,36.0,21.0,30.08,ESE,118,0.0,1.0,54,0.00,,,0.00,,2013-01-08 19:11:00,
2013-01-08 12:22:00,37.0,20.0,30.08,ESE,118,0.0,2.0,50,0.00,,,0.00,,2013-01-08 19:22:00,
2013-01-08 12:32:00,38.0,22.0,30.08,ESE,118,1.0,7.0,51,0.00,,,0.00,,2013-01-08 19:32:00,
2013-01-08 12:42:00,38.0,22.0,30.08,ESE,118,1.0,7.0,51,0.00,,,0.00,,2013-01-08 19:42:00,
2013-01-08 12:53:00,38.0,21.0,30.09,ESE,118,0.0,2.0,49,0.00,,,0.00,,2013-01-08 19:53:00,
2013-01-08 13:02:00,39.0,22.0,30.09,ESE,118,2.0,5.0,50,0.00,,,0.00,,2013-01-08 20:02:00,
2013-01-08 13:12:00,39.0,22.0,30.09,ESE,118,2.0,5.0,50,0.00,,,0.00,,2013-01-08 20:12:00,
2013-01-08 13:22:00,39.0,21.0,30.09,ESE,118,1.0,4.0,49,0.00,,,0.00,,2013-01-08 20:22:00,
2013-01-08 13:32:00,40.0,22.0,30.09,ESE,118,0.0,1.0,48,0.00,,,0.00,,2013-01-08 20:32:00,
2013-01-08 13:42:00,40.0,22.0,30.09,ESE,118,0.0,1.0,48,0.00,,,0.00,,2013-01-08 20:42:00,
2013-01-08 13:53:00,41.0,22.0,30.09,ESE,118,0.0,4.0,47,0.00,,,0.00,,2013-01-08 20:53:00,
2013-01-08 14:02:00,41.0,23.0,30.10,SE,127,3.0,8.0,48,0.00,,,0.00,,2013-01-08 21:02:00,
2013-01-08 14:12:00,41.0,23.0,30.10,SE,127,3.0,8.0,48,0.00,,,0.00,,2013-01-08 21:12:00,
2013-01-08 14:22:00,41.0,21.0,30.10,SE,127,1.0,5.0,45,0.00,,,0.00,,2013-01-08 21:22:00,
2013-01-08 14:32:00,41.0,21.0,30.10,SE,127,1.0,6.0,45,0.00,,,0.00,,2013-01-08 21:32:00,
2013-01-08 14:42:00,41.0,21.0,30.10,SE,127,1.0,6.0,45,0.00,,,0.00,,2013-01-08 21:42:00,
2013-01-08 14:53:00,42.0,20.0,30.11,SE,127,1.0,4.0,41,0.00,,,0.00,,2013-01-08 21:53:00,
2013-01-08 15:02:00,42.0,19.0,30.11,SE,127,0.0,3.0,40,0.00,,,0.00,,2013-01-08 22:02:00,
2013-01-08 15:12:00,42.0,19.0,30.11,SE,127,0.0,3.0,40,0.00,,,0.00,,2013-01-08 22:12:00,
2013-01-08 15:22:00,42.0,19.0,30.12,SE,127,0.0,4.0,40,0.00,,,0.00,,2013-01-08 22:22:00,
2013-01-08 15:32:00,42.0,19.0,30.12,SE,127,0.0,2.0,40,0.00,,,0.00,,2013-01-08 22:32:00,
2013-01-08 15:42:00,42.0,19.0,30.12,SE,127,0.0,2.0,40,0.00,,,0.00,,2013-01-08 22:42:00,
2013-01-08 15:53:00,42.0,19.0,30.12,SE,127,0.0,2.0,40,0.00,,,0.00,,2013-01-08 22:53:00,
2013-01-08 16:02:00,42.0,22.0,30.12,SE,127,2.0,4.0,45,0.00,,,0.00,,2013-01-08 23:02:00,
2013-01-08 16:12:00,42.0,22.0,30.12,SE,127,2.0,4.0,45,0.00,,,0.00,,2013-01-08 23:12:00,
2013-01-08 16:22:00,42.0,24.0,30.12,SE,127,0.0,4.0,48,0.00,,,0.00,,2013-01-08 23:22:00,
2013-01-08 16:32:00,40.0,22.0,30.13,SE,127,0.0,1.0,49,0.00,,,0.00,,2013-01-08 23:32:00,
2013-01-08 16:42:00,40.0,22.0,30.13,SE,127,0.0,1.0,49,0.00,,,0.00,,2013-01-08 23:42:00,
2013-01-08 16:53:00,39.0,22.0,30.14,SE,127,0.0,2.0,51,0.00,,,0.00,,2013-01-08 23:53:00,
2013-01-08 17:02:00,37.0,22.0,30.14,SE,127,1.0,4.0,54,0.00,,,0.00,,2013-01-09 00:02:00,
2013-01-08 17:12:00,37.0,22.0,30.14,SE,127,1.0,4.0,54,0.00,,,0.00,,2013-01-09 00:12:00,
2013-01-08 17:22:00,35.0,22.0,30.14,SE,127,0.0,4.0,58,0.00,,,0.00,,2013-01-09 00:22:00,
2013-01-08 17:32:00,34.0,22.0,30.14,SE,127,0.0,2.0,60,0.00,,,0.00,,2013-01-09 00:32:00,
2013-01-08 17:42:00,34.0,22.0,30.14,SE,127,0.0,2.0,60,0.00,,,0.00,,2013-01-09 00:42:00,
2013-01-08 17:52:00,34.0,22.0,30.14,SE,127,0.0,5.0,60,0.00,,,0.00,,2013-01-09 00:52:00,
2013-01-08 18:02:00,34.0,22.0,30.14,SE,144,4.0,13.0,60,0.00,,,0.00,,2013-01-09 01:02:00,
2013-01-08 18:12:00,34.0,22.0,30.14,SE,144,4.0,13.0,60,0.00,,,0.00,,2013-01-09 01:12:00,
2013-01-08 18:22:00,35.0,22.0,30.14,SSE,148,5.0,10.0,58,0.00,,,0.00,,2013-01-09 01:22:00,
2013-01-08 18:32:00,35.0,21.0,30.14,SSE,153,1.0,10.0,57,0.00,,,0.00,,2013-01-09 01:32:00,
2013-01-08 18:42:00,35.0,21.0,30.14,SSE,153,1.0,10.0,57,0.00,,,0.00,,2013-01-09 01:42:00,
2013-01-08 18:52:00,35.0,21.0,30.15,SSE,154,5.0,9.0,57,0.00,,,0.00,,2013-01-09 01:52:00,
2013-01-08 19:02:00,34.0,21.0,30.14,SSE,154,0.0,7.0,59,0.00,,,0.00,,2013-01-09 02:02:00,
2013-01-08 19:11:00,34.0,21.0,30.14,SSE,154,0.0,7.0,59,0.00,,,0.00,,2013-01-09 02:11:00,
2013-01-08 19:22:00,33.0,21.0,30.15,SSE,154,0.0,3.0,60,0.00,,,0.00,,2013-01-09 02:22:00,
2013-01-08 19:32:00,33.0,21.0,30.16,SSE,154,4.0,8.0,60,0.00,,,0.00,,2013-01-09 02:32:00,
2013-01-08 19:42:00,33.0,21.0,30.16,SSE,154,4.0,8.0,60,0.00,,,0.00,,2013-01-09 02:42:00,
2013-01-08 19:52:00,33.0,20.0,30.16,SSE,154,3.0,9.0,59,0.00,,,0.00,,2013-01-09 02:52:00,
2013-01-08 20:02:00,32.0,20.0,30.16,SSE,154,4.0,11.0,61,0.00,,,0.00,,2013-01-09 03:02:00,
2013-01-08 20:11:00,32.0,20.0,30.16,SSE,154,4.0,11.0,61,0.00,,,0.00,,2013-01-09 03:11:00,
2013-01-08 20:22:00,31.0,20.0,30.16,SSE,154,3.0,9.0,64,0.00,,,0.00,,2013-01-09 03:22:00,
2013-01-08 20:32:00,32.0,20.0,30.17,SE,140,2.0,12.0,62,0.00,,,0.00,,2013-01-09 03:32:00,
2013-01-08 20:42:00,32.0,20.0,30.17,SE,140,2.0,12.0,62,0.00,,,0.00,,2013-01-09 03:42:00,
2013-01-08 20:52:00,33.0,21.0,30.17,SE,138,1.0,8.0,61,0.00,,,0.00,,2013-01-09 03:52:00,
2013-01-08 21:02:00,33.0,21.0,30.18,SE,139,1.0,5.0,61,0.00,,,0.00,,2013-01-09 04:02:00,
2013-01-08 21:12:00,33.0,21.0,30.18,SE,139,1.0,5.0,61,0.00,,,0.00,,2013-01-09 04:12:00,
2013-01-08 21:22:00,33.0,21.0,30.18,SE,139,1.0,5.0,61,0.00,,,0.00,,2013-01-09 04:22:00,
2013-01-08 21:32:00,32.0,21.0,30.18,SE,139,1.0,5.0,63,0.00,,,0.00,,2013-01-09 04:32:00,
2013-01-08 21:42:00,32.0,21.0,30.19,SE,139,1.0,5.0,64,0.00,,,0.00,,2013-01-09 04:42:00,
2013-01-08 21:52:00,32.0,21.0,30.19,SE,139,1.0,5.0,64,0.00,,,0.00,,2013-01-09 04:52:00,
2013-01-08 22:03:00,31.0,20.0,30.19,SE,139,0.0,8.0,64,0.00,,,0.00,,2013-01-09 05:03:00,
2013-01-08 22:12:00,31.0,20.0,30.19,SE,139,0.0,8.0,64,0.00,,,0.00,,2013-01-09 05:12:00,
2013-01-08 22:22:00,31.0,20.0,30.19,SE,139,1.0,6.0,64,0.00,,,0.00,,2013-01-09 05:22:00,
2013-01-08 22:32:00,31.0,20.0,30.19,SE,139,2.0,6.0,63,0.00,,,0.00,,2013-01-09 05:32:00,
2013-01-08 22:42:00,31.0,20.0,30.19,SE,139,2.0,6.0,63,0.00,,,0.00,,2013-01-09 05:42:00,
2013-01-08 22:52:00,31.0,20.0,30.19,SE,139,2.0,6.0,63,0.00,,,0.00,,2013-01-09 05:52:00,
2013-01-08 23:02:00,30.0,19.0,30.20,SE,139,1.0,6.0,64,0.00,,,0.00,,2013-01-09 06:02:00,
2013-01-08 23:11:00,30.0,19.0,30.20,SE,139,1.0,6.0,64,0.00,,,0.00,,2013-01-09 06:11:00,
2013-01-08 23:22:00,30.0,19.0,30.20,SE,139,2.0,6.0,63,0.00,,,0.00,,2013-01-09 06:22:00,
2013-01-08 23:32:00,30.0,19.0,30.21,SE,141,4.0,9.0,62,0.00,,,0.00,,2013-01-09 06:32:00,
2013-01-08 23:42:00,30.0,19.0,30.21,SE,141,4.0,9.0,62,0.00,,,0.00,,2013-01-09 06:42:00,
2013-01-08 23:52:00,31.0,19.0,30.21,SSE,153,4.0,11.0,61,0.00,,,0.00,,2013-01-09 06:52:00,